Back to catalog

STARLINK-32334

AliveCommunicationsVLEO
NORAD 62023·PAYLOAD·🇺🇸 United States

Launched Nov 18, 2024 from Vandenberg Space Force Base

Loading…

Next Passes (next 24 hours)

TLE

FreshSource: CelesTrak SupGP

Epoch: Sep 14, 2026, 15:11 UTC

1 62023C 24213R   26257.63312500 -.00039875  00000+0 -11787-2 0  2573
2 62023  53.1610   9.2222 0001278  88.0166 175.4059 15.34395863    14

Track STARLINK-32334 in real time with AllMySat

Download on the App Store